Location: Bernadets
(43.3537°N, 0.3167°E)
Time: 00:07:12
(UTC+00:00)

USA 229 DEB - Pass Details

Date: 24 October 2021
Orbit: 944 x 1268 km, 63.4° (Epoch: 25 November)

Event Time Altitude Azimuth Distance (km) Brightness Sun altitude
Rises 17:23:27 0° 180° (S) 3,606 6.6 -4.7°
Reaches altitude 10° 17:26:16 10° 170° (S) 2,684 5.8 -5.2°
Maximum altitude 17:31:33 29° 112° (ESE) 1,715 4.4 -6.2°
Drops below altitude 10° 17:37:05 10° 54° (NE) 2,835 5.4 -7.2°
Enters shadow 17:39:26 - 46° (NE) 3,607 6.0 -7.6°
